Home > Weather > San Angelo > Past weeks

Flag for U.S.A. Weather for the Past 2 Weeks in San Angelo, Texas, U.S.A.

Now
69 °F

Clear.


Feels Like: 69 °F
Forecast: 51 / 74 °F
Wind: 9 mph from South

Location: Mathis Field

Current Time: Feb 13, 2016 at 8:34:56 PM

Latest Report: Feb 13, 2016 at 6:51 PM


Visibility: 10 mi

Pressure: 30.06 "Hg (28.17 "Hg at 561m altitude)

Humidity: 25%

Dew point: 32 °F

Location of San AngeloLocation

Historic Weather in San Angelo — Graph

°F

San Angelo Temperature Yesterday

Maximum temperature yesterday: 74 °F (at 2:51 PM)
Minimum temperature yesterday: 32 °F (at 7:51 AM)
Average temperature yesterday: 53 °F

High & Low Weather Summary for the Past Weeks

 TemperatureHumidityPressure
High85 °F (Feb 1, 2:51 PM)85% (Feb 1, 7:51 AM)30.53 "Hg (Feb 1, 7:51 AM)
Low20 °F (Feb 4, 6:51 AM)8% (Jan 30, 1:51 PM)29.40 "Hg (Feb 1, 4:51 PM)
Average51 °F39%30.13 "Hg
* Reported Jan 29 6:51 PM — Feb 13 6:51 PM, San Angelo, Weather by CustomWeather, © 2016

Note: Actual official high and low records may vary slightly from our data, if they occured in-between our weather recording intervals... More about our weather records

Advertising

San Angelo Weather History for the Previous 24 Hours

 ConditionsComfort  
Time TempWeatherWind HumidityBarometerVisibility
6:51 PM
Sat, Feb 13
69 °FClear.9 mph25%30.06 "Hg10 mi
5:51 PM75 °FSunny.15 mph22%30.06 "Hg10 mi
4:51 PM78 °FSunny.15 mph25%30.05 "Hg10 mi
3:51 PM79 °FSunny.15 mph27%30.06 "Hg10 mi
2:51 PM79 °FSunny.15 mph28%30.09 "Hg10 mi
1:51 PM76 °FSunny.17 mph33%30.14 "Hg10 mi
12:51 PM74 °FSunny.17 mph37%30.21 "Hg10 mi
11:51 AM70 °FSunny.17 mph42%30.26 "Hg10 mi
10:51 AM60 °FSunny.No wind44%30.30 "Hg10 mi
9:51 AM53 °FSunny.5 mph51%30.32 "Hg10 mi
8:51 AM46 °FSunny.3 mph63%30.34 "Hg10 mi
7:51 AM34 °FSunny.No wind79%30.34 "Hg10 mi
6:51 AM33 °FClear.No wind78%30.33 "Hg10 mi
5:51 AM36 °FClear.No wind75%30.30 "Hg10 mi
4:51 AM37 °FClear.No wind76%30.29 "Hg10 mi
3:51 AM36 °FClear.No wind75%30.30 "Hg10 mi
2:51 AM42 °FClear.3 mph68%30.30 "Hg10 mi
1:51 AM44 °FClear.7 mph65%30.29 "Hg10 mi
12:51 AM44 °FClear.7 mph60%30.29 "Hg10 mi
11:51 PM
Fri, Feb 12
45 °FClear.6 mph58%30.29 "Hg10 mi
10:51 PM50 °FClear.3 mph48%30.29 "Hg10 mi
9:51 PM52 °FClear.5 mph45%30.29 "Hg10 mi
8:51 PM55 °FClear.7 mph40%30.28 "Hg10 mi
Weather by CustomWeather, © 2016

See weather overviewHow to use our weather pages